Location: Buch
(49.7331°N, 12.1098°E)
Time: 01:07:27
(UTC+00:00)

SL-8 Rocket - Pass Details

Date: 12 May 2021
Orbit: 957 x 990 km, 82.9° (Epoch: 18 June)

Event Time Altitude Azimuth Distance (km) Brightness Sun altitude
Rises 21:09:45 0° 353° (N) 3,718 8.3 -17.1°
Reaches altitude 10° 21:12:22 10° 358° (N) 2,765 7.3 -17.3°
Maximum altitude 21:18:34 52° 74° (ENE) 1,218 4.4 -17.7°
Enters shadow 21:21:47 27° 137° (SE) 1,781 4.8 -18.0°
